Location: Seattle
(47.6064°N, 122.3308°W)
Time: 02:03:05
(UTC-08:00)

A-11 Canister half - Pass Details

Date: 26 November 2020
Orbit: 1524 x 1684 km, 47.3° (Epoch: 21 January)

Event Time Altitude Azimuth Distance (km) Brightness Sun altitude
Rises 07:45:50 0° 245° (WSW) 4,929 11.3 1.3°
Reaches altitude 10° 07:49:01 10° 244° (WSW) 3,935 10.9 1.7°
Maximum altitude 07:59:06 76° 161° (SSE) 1,696 9.5 3.1°
Drops below altitude 10° 08:08:55 10° 78° (ENE) 3,839 11.8 4.4°
Sets 08:11:59 0° 77° (ENE) 4,804 12.2 4.8°
